Temperature
14 15 16 16 16 17 16 15 14 15 15 15 15 15 16 16 16 16 16 16 16 16 16 16 15 15 15 15 15 15 15 15 15 15 14 14 14 14 14 14 14 14 14 14
14 15 16 15 16 16 16 16 15 15 15 15 15 15 15 15 15 15 15 15 15 15 15 15 15 15 15 15 15 14 14 14 14 14 14 14 14 14 14 14 14 14 14 14
12 14 15 14 15 15 15 15 15 14 15 14 14 14 15 15 15 14 14 14 14 14 14 14 15 15 14 14 14 14 14 14 14 14 14 14 14 14 14 14 14 14 14 14
11 13 13 14 15 15 15 15 15 15 14 14 15 15 15 15 14 14 14 14 14 14 14 14 14 14 14 14 14 14 14 14 14 13 13 13 13 13 13 13 13 13 13 14
10 12 12 14 15 15 15 14 14 14 14 14 14 14 14 14 14 14 14 14 14 14 14 14 14 14 14 14 13 13 13 13 13 13 13 13 13 13 13 13 13 13 13 13
10 12 12 13 15 16 15 13 14 14 14 14 14 11 12 14 14 14 14 13 13 13 13 13 13 13 13 13 13 13 13 13 13 13 13 13 13 13 13 13 13 13 13 13
10 11 11 13 14 15 13 13 14 14 14 14 13 12 13 13 13 13 13 13 13 13 13 12 12 12 12 12 12 12 12 12 13 13 13 13 13 13 13 13 13 12 12 13
9 10 11 13 13 13 12 14 14 14 14 13 13 13 13 13 13 13 13 12 12 12 12 12 12 12 12 12 12 12 12 12 12 12 12 12 12 12 12 12 12 12 12 12
10 11 12 13 13 14 14 13 13 13 13 13 13 13 13 12 12 12 12 12 12 12 11 11 11 11 11 11 11 11 11 12 12 12 12 12 12 12 12 12 11 11 12 12
10 11 12 13 13 13 13 13 13 13 13 13 12 12 12 12 12 12 12 11 11 11 11 11 11 11 11 11 11 11 11 11 11 11 11 11 11 11 11 11 11 11 11 11
10 10 11 12 13 13 13 13 12 12 12 12 12 12 12 11 11 11 11 11 11 10 10 10 10 10 10 10 10 10 10 10 10 11 11 11 11 11 11 11 11 11 11 11
9 11 10 11 12 12 12 12 12 12 12 12 12 11 11 11 11 10 10 10 10 10 10 10 10 10 10 10 10 10 10 10 10 10 10 10 10 10 10 10 10 10 10 10
12 12 12 12 12 12 12 11 11 11 11 11 11 11 10 10 10 10 10 10 9 9 9 9 9 9 9 9 9 9 9 9 9 9 10 10 9 9 10 10 10 10 10 10
12 11 11 11 11 11 11 11 11 11 11 11 10 10 10 10 9 9 9 9 9 9 9 9 9 9 9 8 8 9 9 9 9 9 9 9 9 9 9 9 9 9 9 10
11 11 11 11 11 11 11 10 10 10 10 10 10 10 9 9 9 9 9 9 8 8 8 8 8 8 8 8 8 8 8 8 8 9 9 9 9 9 9 9 9 9 9 9
11 11 11 11 10 10 10 10 10 10 9 9 9 9 9 9 9 8 8 8 8 8 8 8 8 8 8 8 8 8 8 8 8 8 8 8 8 8 8 8 8 8 8 9
10 10 10 10 10 10 9 9 9 9 9 9 9 9 8 8 8 8 8 8 8 7 7 8 8 7 7 7 7 7 7 7 7 8 8 8 8 8 8 8 8 8 8 8
10 10 10 10 10 9 9 9 9 9 9 9 8 8 8 8 8 7 7 7 7 7 7 7 7 7 7 7 7 7 7 7 7 7 7 7 7 7 7 7 8 8 7 7
10 10 9 9 9 9 9 9 9 8 8 8 8 8 7 7 7 7 7 7 7 7 7 7 7 7 7 7 7 7 7 7 7 7 7 7 7 7 7 7 7 7 7 7
9 9 9 9 9 9 9 8 8 8 8 8 8 7 7 7 7 7 7 7 7 6 6 6 6 6 6 6 6 6 6 6 7 6 6 6 6 6 7 7 7 7 7 7
9 9 9 9 8 8 8 8 8 8 8 7 7 7 7 6 6 6 6 6 6 6 6 6 6 6 6 6 6 6 6 6 6 6 6 6 6 6 6 6 6 6 7 6
8 8 8 8 8 8 8 8 7 7 7 7 7 6 6 6 6 6 6 6 6 6 6 6 6 5 5 6 6 6 6 6 6 6 6 6 6 6 6 6 6 6 6 6
8 8 8 8 7 7 7 7 7 7 7 6 6 6 6 6 6 6 6 5 5 5 5 5 5 5 5 5 5 5 6 6 5 5 5 5 5 5 6 6 6 6 6 6
8 8 7 7 7 7 7 6 6 6 6 6 6 6 6 5 5 5 5 5 5 5 5 5 5 5 5 5 5 5 5 5 5 5 5 5 5 5 5 6 6 6 6 6
7 7 7 7 6 6 6 6 6 6 5 5 5 5 5 5 5 5 5 5 5 5 5 5 5 5 5 5 5 5 5 5 5 5 5 5 5 5 5 5 5 5 5 5
7 7 6 6 6 6 6 5 5 5 5 5 5 5 4 4 4 4 4 4 4 4 4 4 4 5 4 4 4 4 5 5 5 5 5 5 5 5 5 5 5 5 5 5
6 6 6 6 6 5 5 5 5 5 5 4 4 4 4 4 4 4 4 4 4 4 4 4 4 4 4 4 4 4 4 4 5 5 5 5 5 5 5 5 4 4 4 5
Wind_Speed
6 6 5 5 6 5 5 7 7 7 6 7 5 4 3 2 2 2 1 0 1 2 2 2 2 2 2 3 2 2 2 3 5 4 4 4 4 3 3 3 3 3 3 3
4 4 3 5 6 5 5 5 5 5 5 5 3 3 2 3 4 3 1 1 1 1 1 2 2 3 3 3 3 2 3 4 5 4 4 5 4 4 4 3 3 3 3 3
4 5 3 5 6 5 3 3 5 6 6 3 2 3 4 4 4 3 2 1 0 1 1 3 4 4 4 4 3 3 4 4 4 5 5 5 5 4 4 4 4 3 3 3
2 2 4 6 3 2 2 2 2 3 3 4 4 4 3 3 4 2 1 1 1 2 2 3 3 3 3 3 2 3 4 4 4 5 5 4 5 5 5 5 5 5 4 4
2 2 5 6 3 1 2 3 2 3 2 2 2 3 2 0 2 3 2 2 2 2 2 3 3 3 2 2 3 3 4 5 5 5 5 5 5 6 5 5 5 5 4 5
3 3 5 6 4 2 1 3 3 2 3 2 3 1 3 2 0 0 0 1 1 2 2 3 4 2 2 3 3 5 5 5 5 5 5 6 7 6 5 5 6 5 5 5
5 4 6 6 5 2 2 5 3 2 3 3 3 5 4 3 1 1 1 1 1 1 2 3 3 2 2 3 5 6 5 4 4 4 5 6 5 5 5 5 4 5 5 4
5 4 7 4 1 3 5 3 2 2 3 4 3 2 1 2 2 1 1 2 2 2 3 3 2 2 3 5 6 5 4 3 4 4 4 4 4 4 4 4 5 5 4 4
7 7 5 3 3 3 2 2 2 2 3 4 3 2 2 2 2 2 2 2 2 2 3 4 3 2 4 6 5 4 3 4 4 4 3 3 4 4 4 4 4 5 5 5
3 6 5 3 2 2 2 2 2 2 3 3 3 3 3 3 3 3 3 3 2 2 3 5 4 4 5 5 4 4 4 4 3 3 3 2 3 4 4 5 5 5 5 5
4 5 3 4 3 3 2 2 2 2 2 3 3 3 3 3 3 3 4 3 3 3 4 6 5 5 5 4 3 4 4 5 4 3 4 3 3 4 5 5 6 6 6 5
6 6 5 7 6 4 3 3 2 1 2 1 2 2 3 3 3 3 4 4 4 4 5 6 5 5 5 4 3 4 4 4 3 3 3 3 3 3 4 5 7 8 8 7
7 6 6 7 6 4 3 3 3 2 2 2 2 2 2 3 3 4 4 4 5 5 6 6 5 6 5 4 4 4 4 5 4 3 3 3 3 3 3 3 4 5 6 7
5 3 3 4 5 4 3 3 2 2 2 2 2 2 2 3 4 4 5 5 5 5 6 5 5 6 6 4 4 4 5 5 5 4 4 4 4 3 3 3 3 2 3 4
5 4 5 4 3 3 3 1 2 2 2 2 2 2 3 3 5 6 6 5 5 5 6 6 6 7 6 4 4 5 4 4 4 4 4 4 4 3 3 4 3 2 2 2
5 3 2 2 3 3 2 2 2 3 3 3 3 3 3 4 5 5 5 4 4 6 6 6 7 7 6 5 5 4 4 7 5 4 3 3 3 3 3 3 3 3 3 3
3 3 3 3 3 3 3 3 3 4 3 3 4 4 3 3 4 5 6 6 5 6 7 7 8 7 5 5 5 5 5 5 6 4 4 4 4 4 4 4 4 4 4 4
5 5 5 5 4 3 4 3 3 3 3 4 3 2 3 3 4 6 6 6 6 6 7 7 7 6 5 5 5 5 4 4 4 5 4 4 4 4 4 4 5 4 3 3
3 3 3 3 3 3 3 3 3 3 3 2 2 3 4 4 5 5 6 6 6 7 7 7 8 6 6 6 6 4 4 4 4 4 4 4 4 3 4 4 4 4 4 4
3 2 2 2 2 2 2 2 2 2 2 2 2 3 4 5 5 6 5 5 6 6 6 6 6 5 6 6 6 4 4 4 4 3 3 4 4 4 4 4 4 4 4 4
3 3 2 2 2 2 2 2 1 2 3 2 2 3 5 5 5 5 4 5 7 7 6 7 5 5 5 5 5 3 3 3 3 3 3 3 4 4 3 4 4 4 4 4
3 3 3 2 1 2 2 1 1 2 2 3 3 4 4 5 6 5 5 5 6 7 5 4 4 6 6 6 3 2 3 3 3 3 3 3 4 4 4 4 4 4 4 4
3 2 2 2 2 2 2 2 2 2 3 3 4 4 4 5 4 4 5 5 5 7 6 4 6 7 7 4 2 2 2 2 2 3 3 3 4 4 4 4 4 4 4 3
2 2 2 2 1 0 1 2 2 2 3 4 4 4 4 4 4 4 4 6 8 8 6 6 7 7 5 2 2 1 2 2 2 2 3 3 3 3 3 3 3 3 3 3
3 2 1 1 1 2 2 2 2 2 3 3 4 5 4 3 4 4 4 5 6 6 5 5 7 7 4 2 2 2 2 2 2 2 2 2 3 3 3 3 3 3 3 3
2 2 3 3 3 2 2 1 1 2 2 3 4 4 4 4 3 3 4 5 5 6 5 4 4 4 3 2 2 2 2 2 2 2 2 2 2 2 2 2 2 3 3 3
2 2 1 1 1 1 1 1 2 2 2 2 3 4 4 3 3 3 4 4 4 4 4 4 3 3 3 2 2 2 2 2 1 1 1 1 2 2 2 2 2 2 2 2
Wind_Direction
252 257 255 266 275 248 210 199 202 218 209 229 222 197 189 177 153 118 69 71 186 206 220 228 226 231 230 236 241 232 219 218 226 226 219 213 211 207 205 205 204 197 194 212
298 280 282 286 283 265 247 223 211 202 236 240 207 149 133 136 130 119 115 98 75 347 296 263 245 246 245 242 238 217 216 229 229 221 218 212 209 204 198 199 192 187 196 200
287 301 332 281 259 230 222 215 187 212 234 207 180 175 179 169 150 155 169 144 81 313 289 273 255 244 239 240 235 228 232 235 230 220 220 218 208 197 198 198 191 186 202 203
268 340 244 252 262 182 183 251 218 197 203 188 185 179 165 154 147 152 172 212 281 295 295 294 287 272 257 250 243 241 242 239 232 226 225 220 204 205 208 198 196 198 205 207
160 240 279 289 280 207 190 259 267 185 193 188 133 72 12 312 158 174 199 230 256 271 279 305 303 295 298 278 262 263 258 246 237 228 222 218 213 216 215 199 201 204 202 203
168 203 239 254 277 296 101 267 280 164 162 148 102 117 259 274 184 115 302 288 312 325 340 326 312 311 310 283 273 266 263 256 243 229 221 220 220 221 216 204 206 200 203 208
197 226 261 265 288 42 157 244 257 175 170 161 181 210 227 229 215 207 273 316 338 356 337 308 310 326 311 293 273 267 268 269 258 240 231 228 221 217 210 204 199 201 206 216
179 208 252 262 117 172 220 243 226 186 178 174 182 190 203 208 232 250 301 324 333 330 318 316 318 322 302 287 283 282 274 271 263 250 244 247 219 215 206 196 196 204 210 222
193 217 241 229 202 220 202 221 251 241 211 178 171 197 223 239 254 258 258 275 289 291 305 310 305 292 288 288 295 289 277 270 265 255 244 227 214 209 205 202 204 210 211 221
236 255 262 261 263 270 246 245 266 263 214 180 196 225 240 248 261 268 268 273 283 296 300 298 296 290 284 288 288 281 272 271 263 251 250 234 221 210 206 207 210 214 217 224
248 263 303 284 267 258 274 279 294 307 250 200 196 230 241 256 265 270 276 276 274 271 276 283 292 299 306 304 289 282 282 279 267 249 233 226 228 225 219 221 215 217 220 216
235 232 228 257 257 245 241 249 243 267 297 283 213 234 251 265 266 270 274 273 278 279 279 284 292 297 299 298 290 280 283 281 271 250 239 230 234 273 253 233 231 230 228 225
232 240 242 251 250 245 230 246 259 243 232 270 281 254 257 268 272 272 275 271 270 272 275 279 283 287 291 289 284 272 268 268 268 243 228 225 226 231 259 277 248 236 236 232
243 238 259 256 253 256 247 258 266 259 246 236 251 270 269 274 280 277 277 274 273 278 281 281 280 282 285 285 278 274 272 272 264 240 226 218 221 230 233 235 246 267 261 238
254 232 238 253 259 258 256 258 295 282 273 283 269 267 267 275 277 277 280 283 286 288 287 284 280 281 283 280 274 273 273 271 258 243 230 221 216 220 228 229 228 233 248 251
249 247 215 211 234 247 255 255 267 275 276 274 279 273 269 268 274 283 288 289 287 285 283 281 277 278 277 275 275 274 272 274 264 244 234 227 217 216 221 222 221 216 220 228
212 235 239 238 242 252 256 253 253 263 270 271 268 274 288 295 299 298 296 292 282 278 277 275 276 280 279 274 271 270 270 268 263 246 230 222 216 218 222 223 222 223 228 231
218 224 225 220 224 242 261 266 266 264 269 269 276 291 291 283 282 289 295 298 299 293 286 278 279 284 282 278 275 266 258 251 240 227 222 221 223 222 224 226 224 222 228 225
228 235 248 230 222 225 246 262 272 269 273 276 288 286 283 281 281 287 295 302 302 294 289 285 295 294 283 281 288 265 252 249 238 227 217 220 220 223 226 226 225 225 226 224
255 257 241 232 236 237 255 273 287 290 290 277 283 296 298 296 295 294 295 292 286 282 284 291 294 286 280 280 282 255 247 242 229 221 215 209 210 217 223 228 227 224 224 226
244 248 236 233 266 277 272 272 283 297 301 298 285 289 292 297 302 303 305 303 299 299 300 303 299 286 285 287 287 268 248 232 220 215 210 209 210 214 221 225 229 228 226 224
237 234 234 234 255 289 297 294 294 295 304 313 307 301 303 305 307 309 299 292 297 309 314 306 300 299 302 300 288 266 241 219 214 214 211 213 215 218 223 226 228 232 232 226
235 229 224 217 223 254 296 312 305 299 302 303 303 300 295 293 294 299 305 307 307 313 318 307 309 316 322 326 312 285 249 224 217 218 218 217 221 223 224 225 228 233 231 226
224 220 226 225 194 178 287 293 295 299 302 302 299 297 292 297 304 299 292 302 316 317 317 314 323 332 341 347 332 315 286 247 236 231 228 225 227 227 225 225 230 233 230 225
214 209 202 184 209 248 260 281 307 314 317 316 313 313 307 291 287 295 302 304 312 319 319 319 328 334 337 337 333 322 308 270 253 237 222 223 226 227 223 221 226 231 231 230
215 222 222 220 223 240 255 270 293 299 306 313 316 316 316 312 305 306 312 314 315 326 331 325 323 328 328 324 319 312 307 289 268 249 229 224 221 218 218 223 229 229 229 234
223 230 236 254 261 246 240 250 267 279 282 284 298 304 309 315 319 323 322 322 322 324 327 327 326 325 319 316 316 313 310 299 268 242 224 222 224 224 221 219 224 228 232 239
Height
1528 1523 1522 1521 1520 1518 1521 1525 1530 1527 1525 1520 1518 1517 1516 1517 1517 1518 1519 1519 1519 1519 1520 1520 1520 1521 1521 1521 1521 1521 1520 1520 1520 1520 1521 1521 1521 1522 1522 1523 1524 1524 1525 1525
1527 1521 1520 1521 1518 1517 1517 1518 1520 1521 1522 1515 1515 1515 1516 1516 1516 1517 1517 1517 1518 1518 1518 1518 1518 1518 1518 1518 1518 1518 1517 1517 1517 1517 1517 1517 1518 1519 1519 1520 1521 1521 1522 1522
1535 1525 1522 1526 1517 1516 1516 1514 1516 1520 1518 1514 1515 1515 1515 1515 1515 1515 1516 1515 1515 1515 1515 1515 1515 1515 1514 1514 1514 1514 1514 1513 1513 1514 1514 1514 1514 1515 1516 1516 1517 1518 1519 1519
1537 1532 1535 1522 1511 1510 1512 1512 1511 1512 1512 1511 1512 1512 1513 1513 1514 1514 1514 1514 1513 1513 1512 1512 1511 1511 1511 1510 1510 1510 1510 1509 1510 1510 1510 1510 1510 1511 1512 1513 1513 1514 1515 1516
1538 1537 1529 1518 1510 1510 1511 1513 1510 1510 1510 1510 1510 1511 1512 1513 1512 1512 1512 1512 1511 1510 1510 1509 1508 1507 1507 1506 1506 1506 1505 1505 1505 1505 1505 1505 1506 1506 1507 1508 1509 1510 1511 1512
1536 1535 1532 1518 1508 1506 1510 1515 1509 1508 1508 1509 1509 1514 1513 1511 1511 1510 1510 1509 1509 1508 1507 1506 1505 1504 1503 1502 1502 1501 1501 1500 1501 1501 1501 1501 1501 1502 1503 1504 1504 1506 1506 1508
1534 1533 1524 1511 1507 1507 1518 1515 1508 1507 1507 1507 1508 1509 1509 1509 1508 1508 1507 1507 1506 1505 1503 1503 1502 1500 1499 1498 1498 1497 1497 1496 1496 1496 1496 1496 1496 1497 1498 1499 1500 1501 1502 1503
1531 1533 1525 1508 1506 1510 1510 1506 1505 1505 1505 1504 1504 1505 1505 1505 1505 1505 1504 1503 1502 1501 1500 1499 1498 1497 1495 1494 1494 1493 1492 1491 1490 1490 1490 1491 1491 1492 1493 1494 1495 1496 1497 1498
1519 1518 1509 1506 1505 1505 1505 1504 1504 1503 1502 1502 1502 1502 1502 1502 1502 1501 1500 1500 1499 1498 1496 1495 1495 1494 1492 1490 1490 1488 1487 1486 1486 1485 1485 1485 1486 1486 1487 1489 1489 1490 1492 1492
1512 1508 1505 1504 1503 1503 1503 1502 1501 1501 1499 1499 1499 1499 1499 1499 1498 1497 1497 1496 1495 1494 1492 1491 1490 1489 1488 1486 1485 1484 1483 1481 1481 1480 1480 1480 1481 1482 1483 1483 1484 1485 1486 1487
1509 1505 1503 1502 1501 1501 1501 1500 1499 1498 1497 1496 1496 1496 1495 1495 1494 1493 1493 1492 1491 1490 1488 1486 1485 1484 1483 1482 1480 1479 1477 1476 1476 1476 1476 1476 1476 1477 1478 1479 1480 1480 1481 1483
1506 1502 1502 1500 1499 1499 1498 1496 1495 1495 1494 1493 1493 1492 1491 1491 1490 1490 1489 1488 1487 1485 1484 1482 1481 1479 1478 1477 1475 1474 1472 1471 1470 1470 1471 1471 1471 1472 1472 1474 1475 1476 1477 1478
1498 1498 1498 1496 1496 1496 1494 1493 1492 1491 1491 1490 1489 1489 1488 1487 1486 1485 1484 1483 1482 1480 1479 1477 1476 1474 1472 1471 1470 1468 1467 1466 1465 1465 1465 1466 1466 1466 1466 1468 1469 1470 1471 1472
1495 1494 1494 1493 1492 1492 1491 1490 1489 1488 1488 1487 1486 1485 1484 1483 1482 1481 1480 1478 1477 1476 1474 1472 1470 1468 1467 1466 1465 1463 1462 1461 1460 1460 1460 1460 1461 1461 1462 1462 1463 1463 1465 1466
1491 1491 1490 1489 1489 1489 1488 1487 1486 1485 1484 1483 1482 1481 1480 1479 1478 1476 1475 1474 1472 1470 1468 1467 1465 1463 1462 1460 1459 1457 1456 1455 1455 1455 1455 1455 1455 1456 1457 1457 1458 1459 1459 1461
1488 1487 1487 1486 1486 1485 1484 1483 1482 1481 1480 1479 1478 1477 1476 1475 1473 1472 1470 1469 1467 1464 1462 1461 1459 1457 1456 1455 1453 1451 1451 1450 1450 1449 1450 1450 1450 1451 1451 1452 1453 1454 1455 1456
1484 1483 1483 1483 1482 1482 1481 1480 1479 1477 1476 1475 1474 1473 1472 1470 1468 1467 1465 1463 1461 1459 1457 1455 1453 1452 1450 1449 1447 1446 1444 1444 1444 1444 1444 1445 1445 1446 1447 1448 1448 1449 1450 1451
1481 1480 1480 1480 1479 1478 1477 1476 1475 1474 1473 1471 1470 1469 1467 1465 1464 1462 1460 1458 1456 1453 1452 1450 1448 1446 1444 1442 1441 1440 1439 1438 1438 1438 1439 1440 1440 1441 1442 1443 1444 1444 1445 1447
1477 1477 1477 1477 1476 1475 1474 1472 1471 1470 1469 1468 1467 1465 1463 1461 1460 1458 1456 1453 1450 1448 1446 1444 1443 1441 1438 1436 1435 1434 1433 1433 1432 1432 1433 1434 1435 1436 1437 1438 1439 1440 1441 1442
1474 1474 1474 1473 1473 1472 1470 1469 1468 1467 1466 1465 1463 1461 1459 1457 1456 1453 1451 1449 1447 1444 1441 1439 1437 1435 1433 1431 1430 1428 1427 1427 1426 1427 1428 1429 1430 1431 1432 1433 1434 1435 1436 1437
1471 1471 1470 1469 1469 1468 1467 1466 1465 1463 1462 1461 1460 1458 1456 1454 1452 1449 1447 1444 1442 1440 1437 1435 1433 1430 1428 1426 1424 1423 1422 1422 1422 1422 1423 1424 1426 1427 1428 1429 1430 1431 1432 1432
1468 1467 1467 1466 1465 1464 1464 1463 1462 1460 1459 1457 1456 1454 1452 1450 1447 1445 1443 1441 1438 1435 1433 1430 1428 1426 1424 1422 1420 1419 1418 1419 1419 1419 1420 1420 1421 1422 1423 1424 1425 1426 1427 1428
1465 1464 1464 1463 1462 1461 1460 1460 1458 1457 1455 1454 1452 1450 1448 1446 1444 1441 1438 1437 1434 1431 1429 1426 1424 1422 1420 1418 1417 1416 1416 1416 1416 1416 1416 1417 1418 1419 1419 1420 1421 1423 1423 1424
1462 1461 1461 1460 1459 1458 1457 1456 1455 1453 1452 1451 1449 1447 1445 1442 1440 1438 1436 1433 1430 1428 1425 1423 1421 1418 1417 1415 1414 1413 1413 1413 1413 1413 1414 1414 1415 1415 1416 1417 1418 1418 1419 1420
1459 1458 1458 1457 1456 1455 1454 1452 1451 1450 1448 1446 1445 1443 1441 1439 1436 1433 1431 1429 1426 1424 1422 1419 1418 1416 1414 1413 1412 1411 1411 1410 1410 1410 1411 1411 1411 1412 1413 1413 1414 1414 1415 1415
1456 1455 1455 1454 1453 1452 1451 1449 1448 1446 1445 1442 1440 1439 1437 1435 1432 1430 1428 1425 1423 1421 1419 1416 1415 1413 1412 1411 1410 1409 1408 1408 1407 1407 1408 1408 1408 1408 1409 1409 1410 1410 1411 1411
1453 1452 1452 1451 1450 1449 1447 1446 1445 1443 1441 1440 1437 1435 1433 1431 1429 1427 1425 1422 1420 1418 1416 1414 1412 1411 1409 1408 1407 1407 1406 1405 1405 1405 1405 1405 1405 1405 1405 1406 1406 1406 1406 1407